Project,Study,Ord_Occ,Event_Num,Cast_ID,Date_Time_UTC,Date_Time_PST,Lat_Dec,Lon_Dec,Sta_ID,Line,Sta,Depth,Pressure,PrQ,Temp1,Temp1Q,Temp2,Temp2Q,TempAve,Salt1,Salt1Q,Salt1_Corr,Salt2,Salt2Q,Salt2_Corr,SaltAve_Corr,Ox1,Ox1Q,Ox1_CruiseCorr,Ox1_StaCorr,Ox2,Ox2Q,Ox2_CruiseCorr,Ox2_StaCorr,OxAve_StaCorr,Ox1uM,Ox1uM_CruiseCorr,Ox1uM_StaCorr,Ox2uM,Ox2uM_CruiseCorr,Ox2uM_StaCorr,OxAveuM_StaCorr,FluorV,FluorQ,EstChl_CruiseCorr,EstChl_StaCorr,ISUSV,ISUSQ,EstNO3_CruiseCorr,EstNO3_StaCorr,SigThetaTS1,SigThetaTS1Q,SigThetaTS2,SigThetaTS2Q,BAT,XMiss,TransQ,pH,pHQ,SPAR,SPARQ,PAR,PARQ,PoT1,PoT2,DynHt,SVA,OxSat1,OxSat2,BTL_Depth,BTL_Temp,SaltB,OxB,OxBuM,Chl-a,Phaeo,NO3,NO2,NH4,PO4,SIL
CalCOFI,2007SR,059,61,2007_059u,24-Jul-2020 17:32:08,24-Jul-2020 09:32:08,33.14901,-123.22106,080.0 090.0,080.0,090.0,515.000,519.314,,5.5485,,5.5481,,5.5483,34.1768,,34.1770,34.1786,,34.1802,34.1786,0.5135,,0.5189,0.5307,2.4234,,1.8442,0.8745,0.7026,22.332,22.8243,23.3633,105.387,,44.2531,33.8082,0.0318,,,,-99.0,,-99.0,-99.0,26.9632,,26.9647,,0.6364,85.2915,,7.528,,1.2730E+03,,3.2434E-02,,5.5051,5.5047,1.0303,,7.315,34.518,515,5.549,,0.540,23.55,,,40.52,0.00,0.00,3.12,82.35
CalCOFI,2007SR,059,61,2007_059u,24-Jul-2020 17:32:30,24-Jul-2020 09:32:30,33.14905,-123.22106,080.0 090.0,080.0,090.0,514.000,518.304,,5.5496,,5.5514,,5.5505,34.1766,,34.1768,34.1778,,34.1794,34.1781,0.5081,,0.5132,0.5251,2.3859,,1.7547,0.7627,0.6439,22.095,22.5769,23.1164,103.759,,40.0736,31.5950,0.0322,,,,-99.0,,-99.0,-99.0,26.9629,,26.9637,,0.6364,85.2906,,7.528,,1.3354E+03,,2.0279E-02,,5.5064,5.5081,1.0316,,7.237,33.988,,,,,,,,,,,,
CalCOFI,2007SR,059,61,2007_059u,24-Jul-2020 17:32:33,24-Jul-2020 09:32:33,33.14904,-123.22106,080.0 090.0,080.0,090.0,513.000,517.295,,5.5494,,5.5496,,5.5495,34.1768,,34.1770,34.1781,,34.1797,34.1784,0.5168,,0.5223,0.5342,2.3834,,1.7487,0.7552,0.6447,22.475,22.9736,23.5123,103.649,,39.7912,31.6518,0.0329,,,,-99.0,,-99.0,-99.0,26.9631,,26.9641,,0.6364,85.2913,,7.529,,1.3292E+03,,1.7084E-02,,5.5062,5.5064,1.0318,,7.362,33.950,,,,,,,,,,,,
CalCOFI,2007SR,059,61,2007_059u,24-Jul-2020 17:32:34,24-Jul-2020 09:32:34,33.14904,-123.22106,080.0 090.0,080.0,090.0,512.000,516.285,,5.5499,,5.5501,,5.5500,34.1762,,34.1764,34.1773,,34.1789,34.1777,0.5165,,0.5220,0.5339,2.3743,,1.7270,0.7281,0.6310,22.460,22.9579,23.4966,103.254,,38.7771,31.1369,0.0314,,,,-99.0,,-99.0,-99.0,26.9625,,26.9634,,0.6364,85.2913,,7.529,,1.3292E+03,,1.8530E-02,,5.5068,5.5070,1.0318,,7.357,33.821,,,,,,,,,,,,
CalCOFI,2007SR,059,61,2007_059u,24-Jul-2020 17:32:35,24-Jul-2020 09:32:35,33.14904,-123.22106,080.0 090.0,080.0,090.0,511.000,515.276,,5.5497,,5.5498,,5.5498,34.1744,,34.1746,34.1751,,34.1767,34.1757,0.5233,,0.5291,0.5410,2.3777,,1.7351,0.7382,0.6396,22.759,23.2700,23.8081,103.400,,39.1519,31.4800,0.0321,,,,-99.0,,-99.0,-99.0,26.9611,,26.9616,,0.6364,85.2913,,7.528,,1.3283E+03,,1.3571E-02,,5.5067,5.5068,1.0318,,7.455,33.868,,,,,,,,,,,,
CalCOFI,2007SR,059,61,2007_059u,24-Jul-2020 17:32:36,24-Jul-2020 09:32:36,33.14904,-123.22106,080.0 090.0,080.0,090.0,510.000,514.266,,5.5534,,5.5541,,5.5538,34.1737,,34.1739,34.1751,,34.1767,34.1753,0.5288,,0.5348,0.5468,2.3771,,1.7337,0.7364,0.6416,22.996,23.5174,24.0550,103.376,,39.0903,31.5727,0.0326,,,,-99.0,,-99.0,-99.0,26.9601,,26.9612,,0.6363,85.2930,,7.529,,1.3257E+03,,1.7337E-02,,5.5105,5.5111,1.0318,,7.533,33.864,,,,,,,,,,,,
CalCOFI,2007SR,059,61,2007_059u,24-Jul-2020 17:32:38,24-Jul-2020 09:32:38,33.14904,-123.22106,080.0 090.0,080.0,090.0,509.000,513.256,,5.5722,,5.5747,,5.5735,34.1734,,34.1736,34.1749,,34.1765,34.1751,0.5338,,0.5401,0.5520,2.3672,,1.7100,0.7069,0.6295,23.213,23.7440,24.2810,102.943,,37.9787,31.1299,0.0323,,,,-99.0,,-99.0,-99.0,26.9576,,26.9585,,0.6364,85.2913,,7.529,,1.3261E+03,,1.0328E-02,,5.5293,5.5317,1.0318,,7.607,33.738,,,,,,,,,,,,
CalCOFI,2007SR,059,61,2007_059u,24-Jul-2020 17:32:39,24-Jul-2020 09:32:39,33.14904,-123.22106,080.0 090.0,080.0,090.0,508.000,512.247,,5.5827,,5.5838,,5.5833,34.1721,,34.1723,34.1735,,34.1751,34.1737,0.5412,,0.5478,0.5598,2.3661,,1.7074,0.7036,0.6317,23.534,24.0790,24.6154,102.895,,37.8555,31.2355,0.0317,,,,-99.0,,-99.0,-99.0,26.9553,,26.9562,,0.6364,85.2913,,7.529,,1.3292E+03,,9.8135E-03,,5.5398,5.5409,1.0318,,7.714,33.729,,,,,,,,,,,,
CalCOFI,2007SR,059,61,2007_059u,24-Jul-2020 17:32:40,24-Jul-2020 09:32:40,33.14904,-123.22106,080.0 090.0,080.0,090.0,507.000,511.237,,5.5872,,5.5873,,5.5873,34.1698,,34.1700,34.1713,,34.1729,34.1715,0.5450,,0.5518,0.5637,2.3630,,1.7000,0.6944,0.6291,23.701,24.2534,24.7893,102.761,,37.5115,31.1504,0.0326,,,,-99.0,,-99.0,-99.0,26.9530,,26.9541,,0.6364,85.2913,,7.529,,1.3308E+03,,7.3869E-03,,5.5444,5.5444,1.0318,,7.770,33.688,,,,,,,,,,,,
CalCOFI,2007SR,059,61,2007_059u,24-Jul-2020 17:32:41,24-Jul-2020 09:32:41,33.14904,-123.22106,080.0 090.0,080.0,090.0,506.000,510.228,,5.5915,,5.5916,,5.5916,34.1684,,34.1686,34.1699,,34.1715,34.1701,0.5481,,0.5550,0.5670,2.3612,,1.6957,0.6890,0.6280,23.835,24.3933,24.9289,102.682,,37.3087,31.1188,0.0327,,,,-99.0,,-99.0,-99.0,26.9513,,26.9525,,0.6364,85.2913,,7.529,,1.3261E+03,,3.8857E-03,,5.5488,5.5489,1.0318,,7.814,33.665,,,,,,,,,,,,
CalCOFI,2007SR,059,61,2007_059u,24-Jul-2020 17:32:42,24-Jul-2020 09:32:42,33.14904,-123.22106,080.0 090.0,080.0,090.0,505.000,509.218,,5.6043,,5.6050,,5.6047,34.1686,,34.1688,34.1703,,34.1719,34.1704,0.5486,,0.5555,0.5675,2.3540,,1.6785,0.6675,0.6175,23.858,24.4173,24.9529,102.369,,36.5051,30.7290,0.0323,,,,-99.0,,-99.0,-99.0,26.9499,,26.9512,,0.6364,85.2913,,7.529,,1.3185E+03,,6.6756E-03,,5.5616,5.5623,1.0318,,7.824,33.573,,,,,,,,,,,,
CalCOFI,2007SR,059,61,2007_059u,24-Jul-2020 17:32:43,24-Jul-2020 09:32:43,33.14904,-123.22106,080.0 090.0,080.0,090.0,504.000,508.208,,5.6156,,5.6169,,5.6163,34.1674,,34.1676,34.1688,,34.1704,34.1690,0.5496,,0.5566,0.5686,2.3588,,1.6900,0.6818,0.6252,23.900,24.4611,24.9966,102.580,,37.0468,31.0217,0.0318,,,,-99.0,,-99.0,-99.0,26.9476,,26.9485,,0.6364,85.2913,,7.529,,1.3129E+03,,1.0040E-02,,5.5729,5.5742,1.0318,,7.840,33.651,,,,,,,,,,,,
CalCOFI,2007SR,059,61,2007_059u,24-Jul-2020 17:32:44,24-Jul-2020 09:32:44,33.14904,-123.22106,080.0 090.0,080.0,090.0,503.000,507.199,,5.6220,,5.6224,,5.6222,34.1666,,34.1668,34.1680,,34.1696,34.1682,0.5502,,0.5572,0.5692,2.3571,,1.6859,0.6768,0.6230,23.926,24.4883,25.0237,102.506,,36.8568,30.9403,0.0321,,,,-99.0,,-99.0,-99.0,26.9462,,26.9472,,0.6364,85.2913,,7.529,,1.3120E+03,,4.2264E-03,,5.5794,5.5798,1.0318,,7.850,33.631,,,,,,,,,,,,
CalCOFI,2007SR,059,61,2007_059u,24-Jul-2020 17:32:45,24-Jul-2020 09:32:45,33.14904,-123.22106,080.0 090.0,080.0,090.0,502.000,506.189,,5.6262,,5.6268,,5.6265,34.1660,,34.1662,34.1672,,34.1688,34.1675,0.5534,,0.5605,0.5725,2.3531,,1.6764,0.6648,0.6187,24.065,24.6334,25.1685,102.333,,36.4127,30.7906,0.0322,,,,-99.0,,-99.0,-99.0,26.9452,,26.9461,,0.6361,85.2978,,7.529,,1.3133E+03,,3.6417E-03,,5.5837,5.5843,1.0318,,7.896,33.577,,,,,,,,,,,,
CalCOFI,2007SR,059,61,2007_059u,24-Jul-2020 17:32:46,24-Jul-2020 09:32:46,33.14904,-123.22106,080.0 090.0,080.0,090.0,501.000,505.180,,5.6285,,5.6287,,5.6286,34.1653,,34.1655,34.1666,,34.1682,34.1669,0.5561,,0.5634,0.5754,2.3517,,1.6730,0.6607,0.6181,24.183,24.7565,25.2914,102.271,,36.2535,30.7725,0.0321,,,,-99.0,,-99.0,-99.0,26.9443,,26.9453,,0.6358,85.3042,,7.529,,1.3159E+03,,1.7637E-03,,5.5860,5.5863,1.0318,,7.935,33.558,,,,,,,,,,,,
CalCOFI,2007SR,059,61,2007_059u,24-Jul-2020 17:32:47,24-Jul-2020 09:32:47,33.14904,-123.22106,080.0 090.0,080.0,090.0,500.000,504.170,,5.6336,,5.6340,,5.6338,34.1649,,34.1651,34.1661,,34.1677,34.1664,0.5565,,0.5638,0.5758,2.3520,,1.6737,0.6616,0.6187,24.203,24.7774,25.3122,102.284,,36.2869,30.7996,0.0329,,,,-99.0,,-99.0,-99.0,26.9434,,26.9443,,0.6365,85.2886,,7.529,,1.3170E+03,,4.1587E-03,,5.5912,5.5916,1.0318,,7.943,33.567,,,,,,,,,,,,
CalCOFI,2007SR,059,61,2007_059u,24-Jul-2020 17:32:48,24-Jul-2020 09:32:48,33.14904,-123.22106,080.0 090.0,080.0,090.0,499.000,503.161,,5.6351,,5.6353,,5.6352,34.1645,,34.1647,34.1659,,34.1675,34.1661,0.5644,,0.5720,0.5841,2.3487,,1.6659,0.6517,0.6179,24.544,25.1334,25.6674,102.143,,35.9249,30.7962,0.0322,,,,-99.0,,-99.0,-99.0,26.9428,,26.9440,,0.6364,85.2914,,7.529,,1.3125E+03,,1.8069E-03,,5.5928,5.5931,1.0318,,8.055,33.521,,,,,,,,,,,,
CalCOFI,2007SR,059,61,2007_059u,24-Jul-2020 17:32:49,24-Jul-2020 09:32:49,33.14904,-123.22106,080.0 090.0,080.0,090.0,498.000,502.151,,5.6355,,5.6358,,5.6357,34.1633,,34.1635,34.1647,,34.1663,34.1649,0.5773,,0.5855,0.5976,2.3509,,1.6711,0.6583,0.6280,25.107,25.7211,26.2539,102.236,,36.1637,31.2088,0.0327,,,,-99.0,,-99.0,-99.0,26.9418,,26.9429,,0.6361,85.2984,,7.529,,1.3048E+03,,5.5829E-04,,5.5933,5.5936,1.0318,,8.239,33.552,,,,,,,,,,,,
CalCOFI,2007SR,059,61,2007_059u,24-Jul-2020 17:32:50,24-Jul-2020 09:32:50,33.14904,-123.22106,080.0 090.0,080.0,090.0,497.000,501.142,,5.6332,,5.6341,,5.6337,34.1592,,34.1594,34.1610,,34.1626,34.1610,0.5817,,0.5901,0.6022,2.3500,,1.6690,0.6556,0.6289,25.298,25.9205,26.4528,102.199,,36.0687,31.2608,0.0324,,,,-99.0,,-99.0,-99.0,26.9389,,26.9402,,0.6362,85.2956,,7.529,,1.3001E+03,,-2.018E-06,,5.5911,5.5920,1.0318,,8.301,33.538,,,,,,,,,,,,
CalCOFI,2007SR,059,61,2007_059u,24-Jul-2020 17:32:51,24-Jul-2020 09:32:51,33.14904,-123.22106,080.0 090.0,080.0,090.0,496.000,500.132,,5.6311,,5.6313,,5.6312,34.1576,,34.1578,34.1590,,34.1606,34.1592,0.5834,,0.5919,0.6040,2.3503,,1.6697,0.6565,0.6303,25.372,25.9977,26.5299,102.209,,36.0944,31.3122,0.0310,,,,-99.0,,-99.0,-99.0,26.9379,,26.9389,,0.6364,85.2913,,7.529,,1.2987E+03,,7.4797E-04,,5.5891,5.5893,1.0318,,8.325,33.538,,,,,,,,,,,,
CalCOFI,2007SR,059,61,2007_059u,24-Jul-2020 17:32:52,24-Jul-2020 09:32:52,33.14904,-123.22106,080.0 090.0,080.0,090.0,495.000,499.122,,5.6424,,5.6430,,5.6427,34.1586,,34.1588,34.1602,,34.1618,34.1603,0.5785,,0.5868,0.5988,2.3532,,1.6766,0.6651,0.6320,25.158,25.7743,26.3070,102.338,,36.4255,31.3663,0.0325,,,,-99.0,,-99.0,-99.0,26.9373,,26.9384,,0.6364,85.2913,,7.529,,1.2996E+03,,3.7679E-06,,5.6004,5.6010,1.0318,,8.257,33.590,,,,,,,,,,,,
CalCOFI,2007SR,059,61,2007_059u,24-Jul-2020 17:32:53,24-Jul-2020 09:32:53,33.14904,-123.22106,080.0 090.0,080.0,090.0,494.000,498.113,,5.6543,,5.6545,,5.6544,34.1581,,34.1583,34.1595,,34.1611,34.1597,0.5798,,0.5881,0.6002,2.3410,,1.6475,0.6287,0.6145,25.214,25.8328,26.3654,101.807,,35.0623,30.7139,0.0311,,,,-99.0,,-99.0,-99.0,26.9354,,26.9365,,0.6363,85.2944,,7.529,,1.3012E+03,,1.0000E-12,,5.6124,5.6126,1.0318,,8.278,33.424,,,,,,,,,,,,
CalCOFI,2007SR,059,61,2007_059u,24-Jul-2020 17:32:54,24-Jul-2020 09:32:54,33.14904,-123.22106,080.0 090.0,080.0,090.0,493.000,497.103,,5.6583,,5.6583,,5.6583,34.1574,,34.1576,34.1588,,34.1604,34.1590,0.5836,,0.5921,0.6042,2.3361,,1.6358,0.6141,0.6092,25.380,26.0061,26.5383,101.595,,34.5181,30.5282,0.0321,,,,-99.0,,-99.0,-99.0,26.9344,,26.9355,,0.6361,85.2988,,7.529,,1.3016E+03,,1.0000E-12,,5.6164,5.6164,1.0318,,8.333,33.358,,,,,,,,,,,,
CalCOFI,2007SR,059,61,2007_059u,24-Jul-2020 17:32:55,24-Jul-2020 09:32:55,33.14904,-123.22106,080.0 090.0,080.0,090.0,492.000,496.094,,5.6650,,5.6650,,5.6650,34.1560,,34.1562,34.1575,,34.1591,34.1577,0.5856,,0.5942,0.6063,2.3421,,1.6501,0.6320,0.6192,25.469,26.0990,26.6310,101.853,,35.1804,30.9057,0.0325,,,,-99.0,,-99.0,-99.0,26.9324,,26.9336,,0.6355,85.3102,,7.529,,1.2984E+03,,1.0000E-12,,5.6232,5.6232,1.0318,,8.364,33.447,,,,,,,,,,,,
CalCOFI,2007SR,059,61,2007_059u,24-Jul-2020 17:32:56,24-Jul-2020 09:32:56,33.14904,-123.22106,080.0 090.0,080.0,090.0,491.000,495.084,,5.6672,,5.6671,,5.6672,34.1544,,34.1546,34.1559,,34.1575,34.1561,0.5835,,0.5920,0.6041,2.3418,,1.6494,0.6311,0.6176,25.375,26.0009,26.5331,101.842,,35.1522,30.8427,0.0319,,,,-99.0,,-99.0,-99.0,26.9309,,26.9321,,0.6353,85.3149,,7.529,,1.2939E+03,,1.0000E-12,,5.6255,5.6254,1.0318,,8.333,33.445,,,,,,,,,,,,
CalCOFI,2007SR,059,61,2007_059u,24-Jul-2020 17:32:57,24-Jul-2020 09:32:57,33.14904,-123.22106,080.0 090.0,080.0,090.0,490.000,494.075,,5.6700,,5.6694,,5.6697,34.1543,,34.1545,34.1557,,34.1573,34.1559,0.5880,,0.5967,0.6088,2.3413,,1.6482,0.6296,0.6192,25.573,26.2076,26.7393,101.822,,35.1008,30.9201,0.0313,,,,-99.0,,-99.0,-99.0,26.9305,,26.9317,,0.6361,85.2977,,7.529,,1.2890E+03,,1.0000E-12,,5.6284,5.6278,1.0318,,8.398,33.440,,,,,,,,,,,,
CalCOFI,2007SR,059,61,2007_059u,24-Jul-2020 17:32:58,24-Jul-2020 09:32:58,33.14904,-123.22106,080.0 090.0,080.0,090.0,489.000,493.065,,5.6698,,5.6701,,5.6700,34.1529,,34.1531,34.1546,,34.1562,34.1547,0.5913,,0.6001,0.6122,2.3410,,1.6475,0.6287,0.6205,25.713,26.3537,26.8851,101.808,,35.0649,30.9750,0.0322,,,,-99.0,,-99.0,-99.0,26.9294,,26.9307,,0.6358,85.3035,,7.529,,1.2873E+03,,1.0000E-12,,5.6282,5.6286,1.0318,,8.444,33.436,,,,,,,,,,,,
CalCOFI,2007SR,059,61,2007_059u,24-Jul-2020 17:32:59,24-Jul-2020 09:32:59,33.14904,-123.22106,080.0 090.0,080.0,090.0,488.000,492.056,,5.6707,,5.6701,,5.6704,34.1524,,34.1526,34.1539,,34.1555,34.1541,0.5974,,0.6065,0.6186,2.3407,,1.6468,0.6279,0.6233,25.981,26.6335,27.1643,101.795,,35.0315,31.0979,0.0318,,,,-99.0,,-99.0,-99.0,26.9288,,26.9301,,0.6360,85.3000,,7.529,,1.2877E+03,,1.0000E-12,,5.6293,5.6287,1.0318,,8.533,33.431,,,,,,,,,,,,
CalCOFI,2007SR,059,61,2007_059u,24-Jul-2020 17:33:00,24-Jul-2020 09:33:00,33.14904,-123.22106,080.0 090.0,080.0,090.0,487.000,491.046,,5.6748,,5.6741,,5.6745,34.1515,,34.1517,34.1529,,34.1545,34.1531,0.6004,,0.6097,0.6218,2.3390,,1.6427,0.6228,0.6223,26.109,26.7671,27.2976,101.719,,34.8364,31.0670,0.0320,,,,-99.0,,-99.0,-99.0,26.9276,,26.9289,,0.6353,85.3142,,7.529,,1.2901E+03,,1.0000E-12,,5.6335,5.6327,1.0318,,8.575,33.409,,,,,,,,,,,,
CalCOFI,2007SR,059,61,2007_059u,24-Jul-2020 17:33:01,24-Jul-2020 09:33:01,33.14904,-123.22106,080.0 090.0,080.0,090.0,486.000,490.037,,5.6793,,5.6785,,5.6789,34.1506,,34.1508,34.1522,,34.1538,34.1523,0.6006,,0.6099,0.6220,2.3397,,1.6444,0.6249,0.6235,26.119,26.7775,27.3080,101.749,,34.9134,31.1107,0.0324,,,,-99.0,,-99.0,-99.0,26.9263,,26.9277,,0.6361,85.2982,,7.529,,1.2898E+03,,1.0000E-12,,5.6380,5.6372,1.0318,,8.580,33.422,,,,,,,,,,,,
CalCOFI,2007SR,059,61,2007_059u,24-Jul-2020 17:33:02,24-Jul-2020 09:33:02,33.14904,-123.22105,080.0 090.0,080.0,090.0,485.000,489.027,,5.6851,,5.6836,,5.6844,34.1499,,34.1501,34.1514,,34.1530,34.1516,0.6041,,0.6135,0.6256,2.3399,,1.6448,0.6255,0.6256,26.270,26.9352,27.4653,101.758,,34.9365,31.2009,0.0317,,,,-99.0,,-99.0,-99.0,26.9251,,26.9265,,0.6357,85.3059,,7.529,,1.2863E+03,,1.0000E-12,,5.6439,5.6424,1.0318,,8.630,33.429,,,,,,,,,,,,
CalCOFI,2007SR,059,61,2007_059u,24-Jul-2020 17:33:03,24-Jul-2020 09:33:03,33.14904,-123.22104,080.0 090.0,080.0,090.0,484.000,488.018,,5.6886,,5.6885,,5.6886,34.1498,,34.1500,34.1512,,34.1528,34.1514,0.6045,,0.6139,0.6261,2.3353,,1.6339,0.6117,0.6189,26.288,26.9539,27.4841,101.560,,34.4282,30.9562,0.0321,,,,-99.0,,-99.0,-99.0,26.9246,,26.9257,,0.6363,85.2933,,7.530,,1.2810E+03,,1.0000E-12,,5.6475,5.6473,1.0318,,8.637,33.368,,,,,,,,,,,,
CalCOFI,2007SR,059,61,2007_059u,24-Jul-2020 17:33:04,24-Jul-2020 09:33:04,33.14904,-123.22105,080.0 090.0,080.0,090.0,483.000,487.008,,5.6895,,5.6896,,5.6896,34.1496,,34.1498,34.1511,,34.1527,34.1513,0.6072,,0.6168,0.6289,2.3360,,1.6355,0.6138,0.6214,26.409,27.0803,27.6101,101.592,,34.5104,31.0603,0.0317,,,,-99.0,,-99.0,-99.0,26.9243,,26.9255,,0.6363,85.2944,,7.530,,1.2759E+03,,1.0000E-12,,5.6484,5.6485,1.0318,,8.677,33.379,,,,,,,,,,,,
CalCOFI,2007SR,059,61,2007_059u,24-Jul-2020 17:33:05,24-Jul-2020 09:33:05,33.14904,-123.22106,080.0 090.0,080.0,090.0,482.000,485.999,,5.6925,,5.6925,,5.6925,34.1492,,34.1494,34.1505,,34.1521,34.1508,0.6091,,0.6187,0.6309,2.3402,,1.6456,0.6264,0.6287,26.489,27.1638,27.6935,101.774,,34.9776,31.3356,0.0320,,,,-99.0,,-99.0,-99.0,26.9236,,26.9246,,0.6364,85.2913,,7.530,,1.2726E+03,,1.0000E-12,,5.6515,5.6515,1.0318,,8.704,33.441,,,,,,,,,,,,
CalCOFI,2007SR,059,61,2007_059u,24-Jul-2020 17:33:06,24-Jul-2020 09:33:06,33.14904,-123.22106,080.0 090.0,080.0,090.0,481.000,484.989,,5.6978,,5.6973,,5.6976,34.1481,,34.1483,34.1496,,34.1512,34.1498,0.6168,,0.6268,0.6389,2.3356,,1.6346,0.6126,0.6258,26.823,27.5124,28.0414,101.574,,34.4642,31.2528,0.0331,,,,-99.0,,-99.0,-99.0,26.9221,,26.9233,,0.6364,85.2913,,7.530,,1.2691E+03,,1.0000E-12,,5.6569,5.6564,1.0318,,8.814,33.379,,,,,,,,,,,,
CalCOFI,2007SR,059,61,2007_059u,24-Jul-2020 17:33:07,24-Jul-2020 09:33:07,33.14904,-123.22106,080.0 090.0,080.0,090.0,480.000,483.980,,5.7007,,5.7006,,5.7007,34.1472,,34.1474,34.1486,,34.1502,34.1488,0.6176,,0.6276,0.6398,2.3329,,1.6281,0.6046,0.6222,26.858,27.5490,28.0778,101.456,,34.1612,31.1195,0.0323,,,,-99.0,,-99.0,-99.0,26.9210,,26.9221,,0.6359,85.3025,,7.531,,1.2650E+03,,1.0000E-12,,5.6599,5.6598,1.0318,,8.827,33.342,,,,,,,,,,,,
CalCOFI,2007SR,059,61,2007_059u,24-Jul-2020 17:33:08,24-Jul-2020 09:33:08,33.14904,-123.22106,080.0 090.0,080.0,090.0,479.000,482.970,,5.7048,,5.7048,,5.7048,34.1463,,34.1465,34.1477,,34.1493,34.1479,0.6229,,0.6332,0.6453,2.3354,,1.6341,0.6120,0.6287,27.088,27.7891,28.3174,101.566,,34.4436,31.3805,0.0329,,,,-99.0,,-99.0,-99.0,26.9198,,26.9209,,0.6364,85.2923,,7.532,,1.2601E+03,,1.0000E-12,,5.6640,5.6640,1.0318,,8.903,33.382,,,,,,,,,,,,
CalCOFI,2007SR,059,61,2007_059u,24-Jul-2020 17:33:09,24-Jul-2020 09:33:09,33.14904,-123.22105,080.0 090.0,080.0,090.0,478.000,481.961,,5.7087,,5.7089,,5.7088,34.1455,,34.1457,34.1470,,34.1486,34.1472,0.6262,,0.6366,0.6488,2.3284,,1.6174,0.5912,0.6200,27.232,27.9394,28.4674,101.260,,33.6580,31.0627,0.0320,,,,-99.0,,-99.0,-99.0,26.9187,,26.9199,,0.6364,85.2913,,7.531,,1.2554E+03,,1.0000E-12,,5.6680,5.6682,1.0318,,8.951,33.284,,,,,,,,,,,,
CalCOFI,2007SR,059,61,2007_059u,24-Jul-2020 17:33:10,24-Jul-2020 09:33:10,33.14904,-123.22104,080.0 090.0,080.0,090.0,477.000,480.951,,5.7128,,5.7131,,5.7130,34.1452,,34.1454,34.1464,,34.1480,34.1467,0.6288,,0.6393,0.6515,2.3351,,1.6334,0.6112,0.6314,27.344,28.0563,28.5841,101.552,,34.4077,31.4959,0.0313,,,,-99.0,,-99.0,-99.0,26.9179,,26.9189,,0.6361,85.2972,,7.533,,1.2530E+03,,1.0000E-12,,5.6722,5.6725,1.0318,,8.988,33.383,,,,,,,,,,,,
CalCOFI,2007SR,059,61,2007_059u,24-Jul-2020 17:33:11,24-Jul-2020 09:33:11,33.14904,-123.22104,080.0 090.0,080.0,090.0,476.000,479.942,,5.7187,,5.7192,,5.7190,34.1443,,34.1445,34.1456,,34.1472,34.1459,0.6346,,0.6454,0.6576,2.3368,,1.6374,0.6162,0.6369,27.599,28.3225,28.8497,101.629,,34.6054,31.7276,0.0326,,,,-99.0,,-99.0,-99.0,26.9165,,26.9174,,0.6364,85.2913,,7.533,,1.2547E+03,,1.0000E-12,,5.6781,5.6787,1.0318,,9.074,33.413,,,,,,,,,,,,
CalCOFI,2007SR,059,61,2007_059u,24-Jul-2020 17:33:12,24-Jul-2020 09:33:12,33.14904,-123.22104,080.0 090.0,080.0,090.0,475.000,478.933,,5.7251,,5.7257,,5.7254,34.1431,,34.1433,34.1444,,34.1460,34.1447,0.6480,,0.6594,0.6716,2.3324,,1.6269,0.6031,0.6374,28.182,28.9311,29.4570,101.435,,34.1073,31.7822,0.0319,,,,-99.0,,-99.0,-99.0,26.9147,,26.9156,,0.6361,85.2973,,7.534,,1.2549E+03,,1.0000E-12,,5.6846,5.6853,1.0318,,9.267,33.354,,,,,,,,,,,,
CalCOFI,2007SR,059,61,2007_059u,24-Jul-2020 17:33:13,24-Jul-2020 09:33:13,33.14904,-123.22106,080.0 090.0,080.0,090.0,474.000,477.923,,5.7294,,5.7299,,5.7297,34.1423,,34.1425,34.1435,,34.1451,34.1438,0.6625,,0.6745,0.6868,2.3321,,1.6262,0.6022,0.6445,28.810,29.5867,30.1111,101.420,,34.0688,32.0900,0.0325,,,,-99.0,,-99.0,-99.0,26.9135,,26.9145,,0.6364,85.2913,,7.534,,1.2523E+03,,1.0000E-12,,5.6890,5.6895,1.0318,,9.474,33.352,,,,,,,,,,,,
CalCOFI,2007SR,059,61,2007_059u,24-Jul-2020 17:33:14,24-Jul-2020 09:33:14,33.14904,-123.22106,080.0 090.0,080.0,090.0,473.000,476.914,,5.7294,,5.7294,,5.7294,34.1405,,34.1407,34.1415,,34.1431,34.1419,0.6745,,0.6871,0.6994,2.3341,,1.6310,0.6082,0.6538,29.332,30.1316,30.6549,101.508,,34.2947,32.4748,0.0316,,,,-99.0,,-99.0,-99.0,26.9122,,26.9129,,0.6364,85.2913,,7.534,,1.2455E+03,,1.0000E-12,,5.6891,5.6891,1.0318,,9.645,33.380,,,,,,,,,,,,
CalCOFI,2007SR,059,61,2007_059u,24-Jul-2020 17:33:15,24-Jul-2020 09:33:15,33.14904,-123.22106,080.0 090.0,080.0,090.0,472.000,475.904,,5.7283,,5.7286,,5.7285,34.1363,,34.1365,34.1376,,34.1392,34.1379,0.6725,,0.6850,0.6973,2.3319,,1.6257,0.6016,0.6495,29.249,30.0449,30.5684,101.415,,34.0560,32.3122,0.0326,,,,-99.0,,-99.0,-99.0,26.9090,,26.9099,,0.6364,85.2913,,7.534,,1.2380E+03,,1.0000E-12,,5.6881,5.6884,1.0318,,9.618,33.348,,,,,,,,,,,,
CalCOFI,2007SR,059,61,2007_059u,24-Jul-2020 17:33:17,24-Jul-2020 09:33:17,33.14904,-123.22105,080.0 090.0,080.0,090.0,471.000,474.895,,5.7317,,5.7317,,5.7317,34.1361,,34.1363,34.1374,,34.1390,34.1377,0.6653,,0.6775,0.6898,2.3278,,1.6160,0.5894,0.6396,28.936,29.7182,30.2424,101.237,,33.5990,31.9207,0.0326,,,,-99.0,,-99.0,-99.0,26.9083,,26.9094,,0.6364,85.2913,,7.534,,1.2340E+03,,1.0000E-12,,5.6916,5.6915,1.0318,,9.515,33.292,,,,,,,,,,,,
CalCOFI,2007SR,059,61,2007_059u,24-Jul-2020 17:33:17,24-Jul-2020 09:33:17,33.14904,-123.22104,080.0 090.0,080.0,090.0,470.000,473.885,,5.7558,,5.7576,,5.7567,34.1372,,34.1374,34.1389,,34.1405,34.1390,0.6676,,0.6799,0.6922,2.3311,,1.6238,0.5992,0.6457,29.033,29.8194,30.3434,101.381,,33.9687,32.1561,0.0333,,,,-99.0,,-99.0,-99.0,26.9063,,26.9074,,0.6364,85.2913,,7.534,,1.2340E+03,,1.0000E-12,,5.7157,5.7174,1.0318,,9.553,33.360,,,,,,,,,,,,
CalCOFI,2007SR,059,61,2007_059u,24-Jul-2020 17:33:18,24-Jul-2020 09:33:18,33.14904,-123.22104,080.0 090.0,080.0,090.0,469.000,472.876,,5.7709,,5.7708,,5.7709,34.1366,,34.1368,34.1380,,34.1396,34.1382,0.6651,,0.6773,0.6895,2.3313,,1.6243,0.5998,0.6447,28.923,29.7046,30.2289,101.389,,33.9892,32.1091,0.0318,,,,-99.0,,-99.0,-99.0,26.9039,,26.9051,,0.6364,85.2913,,7.534,,1.2348E+03,,1.0000E-12,,5.7308,5.7307,1.0318,,9.520,33.372,,,,,,,,,,,,
CalCOFI,2007SR,059,61,2007_059u,24-Jul-2020 17:33:20,24-Jul-2020 09:33:20,33.14904,-123.22104,080.0 090.0,080.0,090.0,468.000,471.867,,5.7715,,5.7720,,5.7718,34.1366,,34.1368,34.1379,,34.1395,34.1382,0.6709,,0.6833,0.6956,2.3291,,1.6191,0.5933,0.6445,29.177,29.9698,30.4934,101.291,,33.7376,32.1155,0.0322,,,,-99.0,,-99.0,-99.0,26.9038,,26.9048,,0.6364,85.2913,,7.534,,1.2330E+03,,1.0000E-12,,5.7315,5.7319,1.0318,,9.604,33.341,,,,,,,,,,,,
CalCOFI,2007SR,059,61,2007_059u,24-Jul-2020 17:33:21,24-Jul-2020 09:33:21,33.14904,-123.22104,080.0 090.0,080.0,090.0,467.000,470.857,,5.7724,,5.7730,,5.7727,34.1364,,34.1366,34.1377,,34.1393,34.1380,0.6684,,0.6807,0.6930,2.3286,,1.6179,0.5918,0.6424,29.069,29.8570,30.3809,101.270,,33.6837,32.0323,0.0321,,,,-99.0,,-99.0,-99.0,26.9035,,26.9045,,0.6362,85.2947,,7.534,,1.2273E+03,,1.0000E-12,,5.7325,5.7330,1.0318,,9.568,33.335,,,,,,,,,,,,
CalCOFI,2007SR,059,61,2007_059u,24-Jul-2020 17:33:22,24-Jul-2020 09:33:22,33.14904,-123.22104,080.0 090.0,080.0,090.0,466.000,469.848,,5.7749,,5.7753,,5.7751,34.1365,,34.1367,34.1378,,34.1394,34.1381,0.6784,,0.6912,0.7035,2.3295,,1.6200,0.5944,0.6490,29.503,30.3101,30.8330,101.311,,33.7890,32.3110,0.0320,,,,-99.0,,-99.0,-99.0,26.9033,,26.9043,,0.6364,85.2912,,7.534,,1.2204E+03,,1.0000E-12,,5.7350,5.7354,1.0318,,9.712,33.350,,,,,,,,,,,,
CalCOFI,2007SR,059,61,2007_059u,24-Jul-2020 17:33:23,24-Jul-2020 09:33:23,33.14903,-123.22104,080.0 090.0,080.0,090.0,465.000,468.838,,5.7921,,5.7922,,5.7922,34.1365,,34.1367,34.1382,,34.1398,34.1383,0.6800,,0.6928,0.7052,2.3291,,1.6191,0.5933,0.6493,29.575,30.3852,30.9080,101.294,,33.7453,32.3267,0.0317,,,,-99.0,,-99.0,-99.0,26.9012,,26.9025,,0.6364,85.2913,,7.534,,1.2156E+03,,1.0000E-12,,5.7523,5.7524,1.0318,,9.739,33.358,,,,,,,,,,,,
CalCOFI,2007SR,059,61,2007_059u,24-Jul-2020 17:33:24,24-Jul-2020 09:33:24,33.14903,-123.22106,080.0 090.0,080.0,090.0,464.000,467.829,,5.8146,,5.8164,,5.8155,34.1350,,34.1352,34.1363,,34.1379,34.1366,0.6818,,0.6947,0.7070,2.3225,,1.6033,0.5736,0.6403,29.653,30.4667,30.9893,101.008,,33.0111,32.0002,0.0325,,,,-99.0,,-99.0,-99.0,26.8972,,26.8980,,0.6364,85.2913,,7.534,,1.2130E+03,,1.0000E-12,,5.7748,5.7765,1.0318,,9.770,33.282,,,,,,,,,,,,